Weather in Imus

Philippines     14°25′36″N   120°56′22″E
temp.,
°C
wind,
m/s
gust,
m/s
humid.,
%
clouds,
%
prec.,
mm/h
press.,
hPa
HPBL,
m
15 may, sat
sat1523:00+29e59725 0.0 1010759
02:00+28ene47745 0.0 1009607
05:00+27ene35755 0.0 1009459
08:00+29e57684 0.0 1010874
11:00+33ese895326 0.0 10091075
14:00+34ese9105074 0.0 1007968
17:00+32ese911558 0.0 1007823
20:00+30ese710695 0.0 1009760
16 may, sun
sun1623:00+29e697349 0.0 1010691
02:00+28e46757 0.0 1009496
05:00+28e357794 0.0 1009463
08:00+29e46686 0.0 1010827
11:00+33ese795455 0.0 10091058
14:00+34ese91049100 0.0 1007883
17:00+33ese910535 0.0 1007723
20:00+30ese811705 0.0 1009673
17 may, mon
mon1723:00+29e69735 0.0 1010603
02:00+28e4674100 0.0 1009481
05:00+27ene357418 0.0 1009353
08:00+29e45665 0.0 1010789
11:00+33se46511 0.0 10091149
14:00+34se910465 0.0 10061106
17:00+33ese911485 0.0 1007764
20:00+30ese8116997 0.0 1009652
18 may, tue
tue1823:00+29e577394 0.0 1010607
02:00+28e3576100 0.0 1008453
05:00+27ene347564 0.0 1009390
08:00+29e346632 0.0 1010723
11:00+33se67515 0.0 10091167
14:00+34se1010475 0.0 10061129
17:00+33ese9105394 0.0 1006869
20:00+30ese71070100 0.0 1008722
19 may, wed
wed1923:00+29e5772100 0.0 1010516
02:00+28e457477 0.0 1008424
05:00+28e3576100 0.0 1008496
08:00+29ene2466100 0.0 1010753
11:00+33se4651100 0.0 10091157
14:00+34se8948100 0.0 1006992
17:00+33ese8951100 0.0 1006715
20:00+30ese696797 0.0 1008569